Location: Laas
(43.4693°N, 0.3073°E)
Time: 15:18:09
(UTC+00:00)

Cosmos 1726 Rocket - Pass Details

Date: 25 October 2020
Orbit: 604 x 629 km, 82.5° (Epoch: 24 November)

Event Time Altitude Azimuth Distance (km) Brightness Sun altitude
Rises 17:54:01 0° 182° (S) 2,849 7.1 -10.5°
Reaches altitude 10° 17:56:13 10° 180° (S) 1,953 6.2 -10.9°
Maximum altitude 18:00:31 74° 96° (E) 641 3.4 -11.7°
Drops below altitude 10° 18:04:54 10° 12° (NNE) 1,984 6.0 -12.5°
Sets 18:07:08 0° 11° (N) 2,898 6.8 -12.9°
